Location: Unspecified
(49.9820°N, 20.4363°E)
Time: 06:31:31
(UTC+02:00)

ISS - Pass Details

Date: 14 March 2018
Orbit: 402 x 407 km, 51.6° (Epoch: 25 June)

Event Time Altitude Azimuth Distance (km) Brightness Sun altitude
Exits shadow 03:55:57 70° 329° (NNW) 443 -3.8 -19.6°
Maximum altitude 03:56:11 75° 11° (NNE) 432 -3.8 -19.6°
Drops below altitude 10° 03:59:30 10° 98° (E) 1,477 -0.1 -19.0°
Enters shadow 04:54:16 -71° 295° (WNW) 12,493 3.6 -10.5°
